Time,TemperatureF,DewpointF,PressureIn,WindDirection,WindDirectionDegrees,WindSpeedMPH,WindSpeedGustMPH,Humidity,HourlyPrecipIn,Conditions,Clouds,dailyrainin,SoftwareType,DateUTC
2013-12-11 00:01:00,20.3,12.3,30.07,SW,225,4.9,13.0,71,0.00,,,0.00,WUHU21623XXSP,2013-12-11 05:01:00,
2013-12-11 00:02:00,20.3,12.3,30.07,WNW,285,2.6,13.0,71,0.00,,,0.00,WUHU21623XXSP,2013-12-11 05:02:00,
2013-12-11 00:07:00,20.3,12.3,30.06,West,270,2.9,8.9,71,0.00,,,0.00,WUHU21623XXSP,2013-12-11 05:07:00,
2013-12-11 00:12:00,20.3,12.3,30.06,West,270,6.0,8.1,71,0.00,,,0.00,WUHU21623XXSP,2013-12-11 05:12:00,
2013-12-11 00:17:00,20.3,12.3,30.07,SW,233,3.9,9.8,71,0.00,,,0.00,WUHU21623XXSP,2013-12-11 05:17:00,
2013-12-11 00:22:00,20.3,12.6,30.07,SW,220,3.8,12.3,72,0.00,,,0.00,WUHU21623XXSP,2013-12-11 05:22:00,
2013-12-11 00:27:00,20.1,12.1,30.07,West,266,3.1,12.3,71,0.00,,,0.00,WUHU21623XXSP,2013-12-11 05:27:00,
2013-12-11 00:32:00,20.1,12.1,30.07,West,270,2.7,8.3,71,0.00,,,0.00,WUHU21623XXSP,2013-12-11 05:32:00,
2013-12-11 00:37:00,20.1,12.1,30.07,WSW,247,3.6,8.3,71,0.00,,,0.00,WUHU21623XXSP,2013-12-11 05:37:00,
2013-12-11 00:42:00,20.1,12.1,30.07,West,262,2.6,7.4,71,0.00,,,0.00,WUHU21623XXSP,2013-12-11 05:42:00,
2013-12-11 00:47:00,19.9,12.0,30.08,WSW,247,7.2,10.3,71,0.00,,,0.00,WUHU21623XXSP,2013-12-11 05:47:00,
2013-12-11 00:52:00,19.9,12.3,30.07,South,180,3.1,10.3,72,0.00,,,0.00,WUHU21623XXSP,2013-12-11 05:52:00,
2013-12-11 00:57:00,19.9,12.3,30.07,WSW,241,2.9,6.9,72,0.00,,,0.00,WUHU21623XXSP,2013-12-11 05:57:00,
2013-12-11 01:02:00,19.9,12.3,30.07,SW,225,3.4,6.9,72,0.00,,,0.00,WUHU21623XXSP,2013-12-11 06:02:00,
2013-12-11 01:07:00,19.9,12.3,30.07,WSW,244,3.3,6.9,72,0.00,,,0.00,WUHU21623XXSP,2013-12-11 06:07:00,
2013-12-11 01:12:00,19.9,12.3,30.07,South,180,3.6,7.4,72,0.00,,,0.00,WUHU21623XXSP,2013-12-11 06:12:00,
2013-12-11 01:17:00,19.9,12.6,30.07,West,261,4.3,9.2,73,0.00,,,0.00,WUHU21623XXSP,2013-12-11 06:17:00,
2013-12-11 01:22:00,19.9,12.6,30.07,WSW,238,3.6,10.3,73,0.00,,,0.00,WUHU21623XXSP,2013-12-11 06:22:00,
2013-12-11 01:27:00,19.9,12.6,30.07,WSW,245,3.3,10.3,73,0.00,,,0.00,WUHU21623XXSP,2013-12-11 06:27:00,
2013-12-11 01:32:00,19.9,12.6,30.07,West,260,3.6,7.2,73,0.00,,,0.00,WUHU21623XXSP,2013-12-11 06:32:00,
2013-12-11 01:37:00,19.9,12.9,30.07,SW,233,3.3,8.7,74,0.00,,,0.00,WUHU21623XXSP,2013-12-11 06:37:00,
2013-12-11 01:42:00,19.9,12.9,30.07,West,260,3.2,8.7,74,0.00,,,0.00,WUHU21623XXSP,2013-12-11 06:42:00,
2013-12-11 01:47:00,19.9,12.9,30.07,WSW,243,2.1,7.2,74,0.00,,,0.00,WUHU21623XXSP,2013-12-11 06:47:00,
2013-12-11 01:52:00,19.9,12.9,30.07,West,270,3.8,5.8,74,0.00,,,0.00,WUHU21623XXSP,2013-12-11 06:52:00,
2013-12-11 01:57:00,20.1,13.1,30.07,SSW,202,3.4,6.0,74,0.00,,,0.00,WUHU21623XXSP,2013-12-11 06:57:00,
2013-12-11 02:01:00,20.1,13.1,30.06,WSW,256,4.1,6.0,74,0.00,,,0.00,WUHU21623XXSP,2013-12-11 07:01:00,
2013-12-11 02:06:00,20.3,13.2,30.07,WSW,250,2.3,5.8,74,0.00,,,0.00,WUHU21623XXSP,2013-12-11 07:06:00,
2013-12-11 02:11:00,20.3,13.2,30.07,West,259,2.6,5.6,74,0.00,,,0.00,WUHU21623XXSP,2013-12-11 07:11:00,
2013-12-11 02:16:00,20.3,13.2,30.07,WSW,250,3.2,5.6,74,0.00,,,0.00,WUHU21623XXSP,2013-12-11 07:16:00,
2013-12-11 02:21:00,20.5,13.7,30.07,East,99,1.9,5.6,75,0.00,,,0.00,WUHU21623XXSP,2013-12-11 07:21:00,
2013-12-11 02:26:00,20.5,13.7,30.07,WSW,238,3.0,6.0,75,0.00,,,0.00,WUHU21623XXSP,2013-12-11 07:26:00,
2013-12-11 02:31:00,20.5,13.7,30.07,West,270,2.7,6.0,75,0.00,,,0.00,WUHU21623XXSP,2013-12-11 07:31:00,
2013-12-11 02:36:00,20.5,13.7,30.07,South,180,2.9,7.2,75,0.00,,,0.00,WUHU21623XXSP,2013-12-11 07:36:00,
2013-12-11 02:41:00,20.5,14.0,30.07,WSW,252,3.9,7.6,76,0.00,,,0.00,WUHU21623XXSP,2013-12-11 07:41:00,
2013-12-11 02:46:00,20.5,14.0,30.07,SSW,202,2.5,7.6,76,0.00,,,0.00,WUHU21623XXSP,2013-12-11 07:46:00,
2013-12-11 02:51:00,20.7,14.2,30.08,West,261,2.2,7.2,76,0.00,,,0.00,WUHU21623XXSP,2013-12-11 07:51:00,
2013-12-11 02:56:00,20.7,14.2,30.08,West,261,1.7,4.7,76,0.00,,,0.00,WUHU21623XXSP,2013-12-11 07:56:00,
2013-12-11 03:01:00,20.8,14.4,30.08,WSW,247,4.0,4.0,76,0.00,,,0.00,WUHU21623XXSP,2013-12-11 08:01:00,
2013-12-11 03:06:00,20.8,14.4,30.08,WNW,292,2.0,4.3,76,0.00,,,0.00,WUHU21623XXSP,2013-12-11 08:06:00,
2013-12-11 03:11:00,20.8,14.4,30.09,WNW,292,2.5,6.0,76,0.00,,,0.00,WUHU21623XXSP,2013-12-11 08:11:00,
2013-12-11 03:16:00,20.8,14.7,30.08,West,270,7.2,7.2,77,0.00,,,0.00,WUHU21623XXSP,2013-12-11 08:16:00,
2013-12-11 03:21:00,21.0,15.2,30.09,WSW,254,2.2,7.2,78,0.00,,,0.00,WUHU21623XXSP,2013-12-11 08:21:00,
2013-12-11 03:26:00,21.0,15.2,30.08,West,260,2.6,7.2,78,0.00,,,0.00,WUHU21623XXSP,2013-12-11 08:26:00,
2013-12-11 03:36:00,21.0,15.5,30.09,WNW,292,0.0,5.8,79,0.00,,,0.00,WUHU21623XXSP,2013-12-11 08:36:00,
2013-12-11 03:41:00,20.8,15.3,30.09,WSW,247,4.9,6.5,79,0.00,,,0.00,WUHU21623XXSP,2013-12-11 08:41:00,
2013-12-11 03:46:00,20.8,15.3,30.09,WSW,251,3.2,8.1,79,0.00,,,0.00,WUHU21623XXSP,2013-12-11 08:46:00,
2013-12-11 03:51:00,20.8,15.3,30.09,West,262,1.9,8.1,79,0.00,,,0.00,WUHU21623XXSP,2013-12-11 08:51:00,
2013-12-11 03:56:00,20.8,15.3,30.09,WNW,292,3.6,4.9,79,0.00,,,0.00,WUHU21623XXSP,2013-12-11 08:56:00,
2013-12-11 04:01:00,20.8,15.3,30.09,NW,315,4.0,4.9,79,0.00,,,0.00,WUHU21623XXSP,2013-12-11 09:01:00,
2013-12-11 04:07:00,20.8,15.3,30.09,WNW,292,2.0,4.9,79,0.00,,,0.00,WUHU21623XXSP,2013-12-11 09:07:00,
2013-12-11 04:12:00,20.8,15.6,30.07,West,277,1.6,2.7,80,0.00,,,0.00,WUHU21623XXSP,2013-12-11 09:12:00,
2013-12-11 04:17:00,20.8,15.6,30.07,WNW,292,1.6,2.7,80,0.00,,,0.00,WUHU21623XXSP,2013-12-11 09:17:00,
2013-12-11 04:22:00,20.8,15.6,30.07,WSW,247,3.6,6.7,80,0.00,,,0.00,WUHU21623XXSP,2013-12-11 09:22:00,
2013-12-11 04:27:00,20.8,15.6,30.07,WNW,297,2.7,6.7,80,0.00,,,0.00,WUHU21623XXSP,2013-12-11 09:27:00,
2013-12-11 04:32:00,20.8,15.6,30.07,WNW,299,3.6,6.5,80,0.00,,,0.00,WUHU21623XXSP,2013-12-11 09:32:00,
2013-12-11 04:37:00,20.8,15.6,30.07,West,278,2.9,6.5,80,0.00,,,0.00,WUHU21623XXSP,2013-12-11 09:37:00,
2013-12-11 04:42:00,20.8,15.6,30.07,NW,319,2.0,6.3,80,0.00,,,0.00,WUHU21623XXSP,2013-12-11 09:42:00,
2013-12-11 04:47:00,20.8,15.6,30.07,WNW,292,4.5,6.3,80,0.00,,,0.00,WUHU21623XXSP,2013-12-11 09:47:00,
2013-12-11 04:52:00,20.8,15.6,30.07,West,260,1.4,4.5,80,0.00,,,0.00,WUHU21623XXSP,2013-12-11 09:52:00,
2013-12-11 04:57:00,20.8,15.9,30.07,West,270,3.8,3.8,81,0.00,,,0.00,WUHU21623XXSP,2013-12-11 09:57:00,
2013-12-11 05:02:00,20.8,15.9,30.06,NW,315,2.5,4.0,81,0.00,,,0.00,WUHU21623XXSP,2013-12-11 10:02:00,
2013-12-11 05:07:00,20.8,15.9,30.07,West,267,1.6,3.8,81,0.00,,,0.00,WUHU21623XXSP,2013-12-11 10:07:00,
2013-12-11 05:12:00,20.8,15.9,30.07,West,274,1.5,3.1,81,0.00,,,0.00,WUHU21623XXSP,2013-12-11 10:12:00,
2013-12-11 05:17:00,20.8,15.9,30.06,West,277,1.4,2.2,81,0.00,,,0.00,WUHU21623XXSP,2013-12-11 10:17:00,
2013-12-11 05:22:00,20.8,15.9,30.06,NE,45,0.0,2.0,81,0.00,,,0.00,WUHU21623XXSP,2013-12-11 10:22:00,
2013-12-11 05:27:00,20.8,15.9,30.06,West,270,1.8,4.0,81,0.00,,,0.00,WUHU21623XXSP,2013-12-11 10:27:00,
2013-12-11 05:32:00,20.8,15.9,30.06,SW,214,3.3,4.9,81,0.00,,,0.00,WUHU21623XXSP,2013-12-11 10:32:00,
2013-12-11 05:37:00,20.8,15.9,30.06,West,279,1.2,4.9,81,0.00,,,0.00,WUHU21623XXSP,2013-12-11 10:37:00,
2013-12-11 05:42:00,20.8,15.9,30.06,WNW,286,1.0,2.9,81,0.00,,,0.00,WUHU21623XXSP,2013-12-11 10:42:00,
2013-12-11 05:47:00,20.8,15.9,30.06,West,273,2.1,2.7,81,0.00,,,0.00,WUHU21623XXSP,2013-12-11 10:47:00,
2013-12-11 05:52:00,20.8,15.9,30.06,WNW,286,1.8,2.9,81,0.00,,,0.00,WUHU21623XXSP,2013-12-11 10:52:00,
2013-12-11 05:57:00,20.8,15.9,30.06,SSW,202,0.0,2.9,81,0.00,,,0.00,WUHU21623XXSP,2013-12-11 10:57:00,
2013-12-11 06:02:00,20.8,15.9,30.07,WSW,247,0.7,2.5,81,0.00,,,0.00,WUHU21623XXSP,2013-12-11 11:02:00,
2013-12-11 06:07:00,20.8,16.2,30.06,SSE,157,3.6,4.3,82,0.00,,,0.00,WUHU21623XXSP,2013-12-11 11:07:00,
2013-12-11 06:12:00,20.8,16.2,30.06,South,180,4.5,4.5,82,0.00,,,0.00,WUHU21623XXSP,2013-12-11 11:12:00,
2013-12-11 06:17:00,20.8,15.9,30.06,SSW,199,2.5,5.4,81,0.00,,,0.00,WUHU21623XXSP,2013-12-11 11:17:00,
2013-12-11 06:22:00,20.5,15.5,30.06,South,180,3.4,5.4,81,0.00,,,0.00,WUHU21623XXSP,2013-12-11 11:22:00,
2013-12-11 06:27:00,20.5,15.5,30.07,SSW,192,3.3,5.6,81,0.00,,,0.00,WUHU21623XXSP,2013-12-11 11:27:00,
2013-12-11 06:32:00,20.1,15.2,30.07,SSW,202,4.7,6.5,81,0.00,,,0.00,WUHU21623XXSP,2013-12-11 11:32:00,
2013-12-11 06:37:00,19.9,15.0,30.08,SSW,196,3.6,7.2,81,0.00,,,0.00,WUHU21623XXSP,2013-12-11 11:37:00,
2013-12-11 06:42:00,19.8,14.8,30.07,South,191,3.0,9.6,81,0.00,,,0.00,WUHU21623XXSP,2013-12-11 11:42:00,
2013-12-11 06:47:00,19.6,14.6,30.07,SSW,209,1.7,9.6,81,0.00,,,0.00,WUHU21623XXSP,2013-12-11 11:47:00,
2013-12-11 06:52:00,19.6,14.6,30.07,SW,216,3.1,6.7,81,0.00,,,0.00,WUHU21623XXSP,2013-12-11 11:52:00,
2013-12-11 06:57:00,19.4,14.4,30.08,SSW,202,3.6,5.4,81,0.00,,,0.00,WUHU21623XXSP,2013-12-11 11:57:00,
2013-12-11 07:02:00,19.2,14.3,30.08,SSW,212,3.3,6.7,81,0.00,,,0.00,WUHU21623XXSP,2013-12-11 12:02:00,
2013-12-11 07:07:00,19.2,14.3,30.08,SW,220,2.4,6.7,81,0.00,,,0.00,WUHU21623XXSP,2013-12-11 12:07:00,
2013-12-11 07:12:00,19.0,14.4,30.09,South,180,3.6,4.0,82,0.00,,,0.00,WUHU21623XXSP,2013-12-11 12:12:00,
2013-12-11 07:17:00,19.0,14.4,30.09,South,189,1.6,5.8,82,0.00,,,0.00,WUHU21623XXSP,2013-12-11 12:17:00,
2013-12-11 07:22:00,19.0,14.4,30.09,SW,214,1.5,5.8,82,0.00,,,0.00,WUHU21623XXSP,2013-12-11 12:22:00,
2013-12-11 07:27:00,19.0,14.4,30.09,SSW,202,2.9,5.8,82,0.00,,,0.00,WUHU21623XXSP,2013-12-11 12:27:00,
2013-12-11 07:32:00,19.0,14.4,30.09,South,190,2.2,5.4,82,0.00,,,0.00,WUHU21623XXSP,2013-12-11 12:32:00,
2013-12-11 07:37:00,19.0,14.4,30.10,SW,219,1.2,5.4,82,0.00,,,0.00,WUHU21623XXSP,2013-12-11 12:37:00,
2013-12-11 07:42:00,19.0,14.4,30.10,SSW,198,1.7,2.2,82,0.00,,,0.00,WUHU21623XXSP,2013-12-11 12:42:00,
2013-12-11 07:47:00,19.0,14.4,30.10,SSW,207,1.9,4.5,82,0.00,,,0.00,WUHU21623XXSP,2013-12-11 12:47:00,
2013-12-11 07:52:00,19.0,14.4,30.10,SSW,202,2.2,4.5,82,0.00,,,0.00,WUHU21623XXSP,2013-12-11 12:52:00,
2013-12-11 07:57:00,19.0,14.4,30.10,SSW,202,2.2,3.1,82,0.00,,,0.00,WUHU21623XXSP,2013-12-11 12:57:00,
2013-12-11 08:02:00,19.2,14.5,30.10,South,186,2.6,4.7,82,0.00,,,0.00,WUHU21623XXSP,2013-12-11 13:02:00,
2013-12-11 08:07:00,19.2,14.5,30.10,South,180,1.8,4.7,82,0.00,,,0.00,WUHU21623XXSP,2013-12-11 13:07:00,
2013-12-11 08:12:00,19.2,14.5,30.11,SW,225,3.4,4.0,82,0.00,,,0.00,WUHU21623XXSP,2013-12-11 13:12:00,
2013-12-11 08:17:00,19.2,14.8,30.10,SSW,200,2.1,4.5,83,0.00,,,0.00,WUHU21623XXSP,2013-12-11 13:17:00,
2013-12-11 08:22:00,19.2,14.8,30.11,SSW,198,2.5,4.5,83,0.00,,,0.00,WUHU21623XXSP,2013-12-11 13:22:00,
2013-12-11 08:27:00,19.2,14.8,30.11,South,180,3.6,4.5,83,0.00,,,0.00,WUHU21623XXSP,2013-12-11 13:27:00,
2013-12-11 08:32:00,19.2,14.8,30.11,South,186,2.2,4.7,83,0.00,,,0.00,WUHU21623XXSP,2013-12-11 13:32:00,
2013-12-11 08:37:00,19.4,15.0,30.11,SSW,202,2.5,4.7,83,0.00,,,0.00,WUHU21623XXSP,2013-12-11 13:37:00,
2013-12-11 08:42:00,19.4,15.0,30.12,SSW,194,1.8,4.5,83,0.00,,,0.00,WUHU21623XXSP,2013-12-11 13:42:00,
2013-12-11 08:47:00,19.6,15.2,30.12,SSW,196,1.7,3.4,83,0.00,,,0.00,WUHU21623XXSP,2013-12-11 13:47:00,
2013-12-11 08:52:00,19.8,15.3,30.12,SSW,198,1.6,3.1,83,0.00,,,0.00,WUHU21623XXSP,2013-12-11 13:52:00,
2013-12-11 08:57:00,19.9,15.5,30.12,South,173,2.2,3.1,83,0.00,,,0.00,WUHU21623XXSP,2013-12-11 13:57:00,
2013-12-11 09:02:00,19.9,15.5,30.12,SW,219,1.8,2.9,83,0.00,,,0.00,WUHU21623XXSP,2013-12-11 14:02:00,
2013-12-11 09:07:00,20.1,15.7,30.12,SW,225,1.8,3.6,83,0.00,,,0.00,WUHU21623XXSP,2013-12-11 14:07:00,
2013-12-11 09:12:00,20.5,16.1,30.12,SW,225,2.0,3.6,83,0.00,,,0.00,WUHU21623XXSP,2013-12-11 14:12:00,
2013-12-11 09:17:00,20.7,16.3,30.12,SSW,197,0.9,2.9,83,0.00,,,0.00,WUHU21623XXSP,2013-12-11 14:17:00,
2013-12-11 09:22:00,20.8,16.4,30.13,SSW,202,1.2,2.9,83,0.00,,,0.00,WUHU21623XXSP,2013-12-11 14:22:00,
2013-12-11 09:27:00,21.0,16.6,30.13,NW,315,1.8,4.5,83,0.00,,,0.00,WUHU21623XXSP,2013-12-11 14:27:00,
2013-12-11 09:32:00,21.4,17.0,30.12,West,270,2.2,4.5,83,0.00,,,0.00,WUHU21623XXSP,2013-12-11 14:32:00,
2013-12-11 09:37:00,21.6,17.1,30.12,WSW,254,1.7,3.4,83,0.00,,,0.00,WUHU21623XXSP,2013-12-11 14:37:00,
2013-12-11 09:42:00,21.9,17.5,30.13,West,275,1.3,3.4,83,0.00,,,0.00,WUHU21623XXSP,2013-12-11 14:42:00,
2013-12-11 09:47:00,21.9,17.5,30.13,WNW,292,0.0,2.5,83,0.00,,,0.00,WUHU21623XXSP,2013-12-11 14:47:00,
2013-12-11 09:52:00,22.3,18.1,30.13,WNW,292,2.5,3.1,84,0.00,,,0.00,WUHU21623XXSP,2013-12-11 14:52:00,
2013-12-11 09:57:00,22.5,18.0,30.13,NNW,335,2.1,4.7,83,0.00,,,0.00,WUHU21623XXSP,2013-12-11 14:57:00,
2013-12-11 10:02:00,22.6,18.2,30.13,WNW,292,2.0,4.7,83,0.00,,,0.00,WUHU21623XXSP,2013-12-11 15:02:00,
2013-12-11 10:07:00,22.8,18.4,30.13,NW,306,2.5,5.1,83,0.00,,,0.00,WUHU21623XXSP,2013-12-11 15:07:00,
2013-12-11 10:12:00,22.8,18.4,30.14,NW,319,2.5,7.8,83,0.00,,,0.00,WUHU21623XXSP,2013-12-11 15:12:00,
2013-12-11 10:17:00,23.2,18.5,30.14,NW,319,4.1,7.8,82,0.00,,,0.00,WUHU21623XXSP,2013-12-11 15:17:00,
2013-12-11 10:22:00,23.2,18.5,30.14,NNW,337,4.5,7.2,82,0.00,,,0.00,WUHU21623XXSP,2013-12-11 15:22:00,
2013-12-11 10:27:00,23.2,18.5,30.14,NNW,336,2.0,4.5,82,0.00,,,0.00,WUHU21623XXSP,2013-12-11 15:27:00,
2013-12-11 10:32:00,23.5,18.9,30.15,NW,315,3.6,6.0,82,0.00,,,0.00,WUHU21623XXSP,2013-12-11 15:32:00,
2013-12-11 10:37:00,23.5,18.6,30.15,NNW,331,1.6,6.0,81,0.00,,,0.00,WUHU21623XXSP,2013-12-11 15:37:00,
2013-12-11 10:42:00,23.4,18.7,30.15,WNW,286,3.3,6.7,82,0.00,,,0.00,WUHU21623XXSP,2013-12-11 15:42:00,
2013-12-11 10:47:00,23.5,18.9,30.15,North,0,2.2,6.7,82,0.00,,,0.00,WUHU21623XXSP,2013-12-11 15:47:00,
2013-12-11 10:52:00,23.5,18.9,30.15,NNW,337,5.1,5.1,82,0.00,,,0.00,WUHU21623XXSP,2013-12-11 15:52:00,
2013-12-11 10:57:00,23.7,18.8,30.15,WNW,301,2.7,5.6,81,0.00,,,0.00,WUHU21623XXSP,2013-12-11 15:57:00,
2013-12-11 11:02:00,24.1,18.9,30.15,WNW,292,3.1,5.8,80,0.00,,,0.00,WUHU21623XXSP,2013-12-11 16:02:00,
2013-12-11 11:07:00,24.3,18.4,30.15,WNW,289,3.8,8.5,78,0.00,,,0.00,WUHU21623XXSP,2013-12-11 16:07:00,
2013-12-11 11:12:00,24.4,18.2,30.15,NW,315,3.6,8.5,77,0.00,,,0.00,WUHU21623XXSP,2013-12-11 16:12:00,
2013-12-11 11:17:00,24.6,18.4,30.15,NNW,329,2.6,6.7,77,0.00,,,0.00,WUHU21623XXSP,2013-12-11 16:17:00,
2013-12-11 11:22:00,24.4,18.6,30.15,North,1,2.2,6.7,78,0.00,,,0.00,WUHU21623XXSP,2013-12-11 16:22:00,
2013-12-11 11:27:00,24.4,18.6,30.15,North,0,3.0,7.8,78,0.00,,,0.00,WUHU21623XXSP,2013-12-11 16:27:00,
2013-12-11 11:32:00,24.1,18.5,30.15,NW,305,2.9,7.8,79,0.00,,,0.00,WUHU21623XXSP,2013-12-11 16:32:00,
2013-12-11 11:37:00,24.4,18.9,30.15,WNW,287,3.4,5.1,79,0.00,,,0.00,WUHU21623XXSP,2013-12-11 16:37:00,
2013-12-11 11:43:00,24.1,18.2,30.15,NW,319,3.2,8.1,78,0.00,,,0.00,WUHU21623XXSP,2013-12-11 16:43:00,
2013-12-11 11:48:00,24.1,18.2,30.15,NNE,22,4.3,8.1,78,0.00,,,0.00,WUHU21623XXSP,2013-12-11 16:48:00,
2013-12-11 11:53:00,24.1,18.2,30.15,NW,320,3.9,5.8,78,0.00,,,0.00,WUHU21623XXSP,2013-12-11 16:53:00,
2013-12-11 11:58:00,23.9,18.0,30.15,North,0,6.5,6.5,78,0.00,,,0.00,WUHU21623XXSP,2013-12-11 16:58:00,
2013-12-11 12:03:00,23.9,18.0,30.15,WNW,292,4.7,7.4,78,0.00,,,0.00,WUHU21623XXSP,2013-12-11 17:03:00,
2013-12-11 12:08:00,23.7,18.2,30.15,NNW,327,3.2,7.4,79,0.00,,,0.00,WUHU21623XXSP,2013-12-11 17:08:00,
2013-12-11 12:13:00,23.5,18.0,30.15,West,270,3.4,6.9,79,0.00,,,0.00,WUHU21623XXSP,2013-12-11 17:13:00,
2013-12-11 12:18:00,23.2,17.3,30.14,NNW,337,3.6,8.9,78,0.00,,,0.00,WUHU21623XXSP,2013-12-11 17:18:00,
2013-12-11 12:23:00,23.2,17.3,30.14,NW,317,2.5,8.9,78,0.00,,,0.00,WUHU21623XXSP,2013-12-11 17:23:00,
2013-12-11 12:28:00,23.0,17.5,30.14,North,9,1.9,8.3,79,0.00,,,0.00,WUHU21623XXSP,2013-12-11 17:28:00,
2013-12-11 12:33:00,23.0,17.5,30.14,North,350,2.1,8.3,79,0.00,,,0.00,WUHU21623XXSP,2013-12-11 17:33:00,
2013-12-11 12:38:00,22.8,17.3,30.14,North,0,3.4,6.7,79,0.00,,,0.00,WUHU21623XXSP,2013-12-11 17:38:00,
2013-12-11 12:43:00,22.8,17.3,30.14,NW,315,6.7,6.7,79,0.00,,,0.00,WUHU21623XXSP,2013-12-11 17:43:00,
2013-12-11 12:48:00,22.8,17.3,30.14,NW,323,2.9,6.7,79,0.00,,,0.00,WUHU21623XXSP,2013-12-11 17:48:00,
2013-12-11 12:53:00,22.8,17.3,30.14,NNW,337,4.3,7.6,79,0.00,,,0.00,WUHU21623XXSP,2013-12-11 17:53:00,
2013-12-11 12:58:00,22.8,17.1,30.14,NW,325,3.8,7.6,79,0.00,,,0.00,WUHU21623XXSP,2013-12-11 17:58:00,
2013-12-11 13:03:00,22.6,17.1,30.14,North,4,1.9,7.6,79,0.00,,,0.00,WUHU21623XXSP,2013-12-11 18:03:00,
2013-12-11 13:08:00,22.5,16.9,30.14,NW,321,4.3,9.6,79,0.00,,,0.00,WUHU21623XXSP,2013-12-11 18:08:00,
2013-12-11 13:13:00,22.3,16.8,30.14,NNW,336,3.2,9.6,79,0.00,,,0.00,WUHU21623XXSP,2013-12-11 18:13:00,
2013-12-11 13:18:00,22.1,16.6,30.14,NW,319,3.0,8.1,79,0.00,,,0.00,WUHU21623XXSP,2013-12-11 18:18:00,
2013-12-11 13:23:00,22.1,16.6,30.14,NNW,337,3.1,11.6,79,0.00,,,0.00,WUHU21623XXSP,2013-12-11 18:23:00,
2013-12-11 13:28:00,22.1,16.3,30.15,NW,315,3.6,12.8,78,0.00,,,0.00,WUHU21623XXSP,2013-12-11 18:28:00,
2013-12-11 13:33:00,22.1,16.3,30.15,NNW,339,3.4,12.8,78,0.00,,,0.00,WUHU21623XXSP,2013-12-11 18:33:00,
2013-12-11 13:38:00,22.1,15.7,30.15,NNW,335,5.8,9.8,76,0.00,,,0.00,WUHU21623XXSP,2013-12-11 18:38:00,
2013-12-11 13:43:00,21.9,15.5,30.15,NNW,345,4.6,9.8,76,0.00,,,0.00,WUHU21623XXSP,2013-12-11 18:43:00,
2013-12-11 13:48:00,21.9,15.8,30.15,NW,317,2.9,9.2,77,0.00,,,0.00,WUHU21623XXSP,2013-12-11 18:48:00,
2013-12-11 13:53:00,22.1,15.3,30.15,North,0,4.3,9.2,75,0.00,,,0.00,WUHU21623XXSP,2013-12-11 18:53:00,
2013-12-11 13:58:00,22.1,15.3,30.16,NW,319,4.3,9.4,75,0.00,,,0.00,WUHU21623XXSP,2013-12-11 18:58:00,
2013-12-11 14:03:00,22.1,15.0,30.15,NNW,348,3.8,9.4,74,0.00,,,0.00,WUHU21623XXSP,2013-12-11 19:03:00,
2013-12-11 14:08:00,22.1,15.0,30.16,NW,315,3.6,8.1,74,0.00,,,0.00,WUHU21623XXSP,2013-12-11 19:08:00,
2013-12-11 14:13:00,21.9,14.3,30.16,NNW,334,4.7,11.4,72,0.00,,,0.00,WUHU21623XXSP,2013-12-11 19:13:00,
2013-12-11 14:18:00,21.9,13.6,30.16,North,351,6.4,13.4,70,0.00,,,0.00,WUHU21623XXSP,2013-12-11 19:18:00,
2013-12-11 14:23:00,21.7,13.1,30.16,NNW,328,5.7,13.4,69,0.00,,,0.00,WUHU21623XXSP,2013-12-11 19:23:00,
2013-12-11 14:28:00,21.7,13.1,30.17,NNW,342,4.9,11.0,69,0.00,,,0.00,WUHU21623XXSP,2013-12-11 19:28:00,
2013-12-11 14:32:00,21.7,12.8,30.16,NNW,340,5.3,9.2,68,0.00,,,0.00,WUHU21623XXSP,2013-12-11 19:32:00,
2013-12-11 14:37:00,21.6,12.6,30.17,North,354,3.9,8.5,68,0.00,,,0.00,WUHU21623XXSP,2013-12-11 19:37:00,
2013-12-11 14:42:00,21.4,12.1,30.17,NW,321,5.0,8.3,67,0.00,,,0.00,WUHU21623XXSP,2013-12-11 19:42:00,
2013-12-11 14:47:00,21.4,11.7,30.17,NW,323,4.5,8.3,66,0.00,,,0.00,WUHU21623XXSP,2013-12-11 19:47:00,
2013-12-11 14:52:00,21.4,11.7,30.18,NNE,22,4.5,9.2,66,0.00,,,0.00,WUHU21623XXSP,2013-12-11 19:52:00,
2013-12-11 14:57:00,21.2,11.6,30.18,North,0,4.7,9.2,66,0.00,,,0.00,WUHU21623XXSP,2013-12-11 19:57:00,
2013-12-11 15:02:00,21.0,11.4,30.18,North,0,3.1,11.0,66,0.00,,,0.00,WUHU21623XXSP,2013-12-11 20:02:00,
2013-12-11 15:07:00,21.0,11.4,30.18,NW,315,3.6,11.0,66,0.00,,,0.00,WUHU21623XXSP,2013-12-11 20:07:00,
2013-12-11 15:12:00,21.0,11.0,30.18,NNW,341,4.1,7.6,65,0.00,,,0.00,WUHU21623XXSP,2013-12-11 20:12:00,
2013-12-11 15:17:00,20.5,10.5,30.18,NNW,337,7.8,8.5,65,0.00,,,0.00,WUHU21623XXSP,2013-12-11 20:17:00,
2013-12-11 15:22:00,20.1,9.8,30.19,North,0,5.8,11.2,64,0.00,,,0.00,WUHU21623XXSP,2013-12-11 20:22:00,
2013-12-11 15:27:00,19.8,9.1,30.18,NW,316,4.1,11.2,63,0.00,,,0.00,WUHU21623XXSP,2013-12-11 20:27:00,
2013-12-11 15:32:00,19.6,8.9,30.19,NW,323,7.1,11.9,63,0.00,,,0.00,WUHU21623XXSP,2013-12-11 20:32:00,
2013-12-11 15:37:00,19.2,8.6,30.18,NNW,337,9.6,11.9,63,0.00,,,0.00,WUHU21623XXSP,2013-12-11 20:37:00,
2013-12-11 15:42:00,19.2,8.9,30.19,NW,325,4.1,11.2,64,0.00,,,0.00,WUHU21623XXSP,2013-12-11 20:42:00,
2013-12-11 15:47:00,19.2,9.2,30.19,NW,315,6.3,8.9,65,0.00,,,0.00,WUHU21623XXSP,2013-12-11 20:47:00,
2013-12-11 15:52:00,19.2,8.9,30.19,NW,310,4.2,10.5,64,0.00,,,0.00,WUHU21623XXSP,2013-12-11 20:52:00,
2013-12-11 15:57:00,19.2,9.2,30.19,West,270,3.6,10.5,65,0.00,,,0.00,WUHU21623XXSP,2013-12-11 20:57:00,
2013-12-11 16:02:00,18.9,8.9,30.20,NW,325,4.8,12.3,65,0.00,,,0.00,WUHU21623XXSP,2013-12-11 21:02:00,
2013-12-11 16:07:00,18.7,9.1,30.20,NW,321,2.3,12.3,66,0.00,,,0.00,WUHU21623XXSP,2013-12-11 21:07:00,
2013-12-11 16:12:00,18.7,9.1,30.20,NNW,337,2.9,8.9,66,0.00,,,0.00,WUHU21623XXSP,2013-12-11 21:12:00,
2013-12-11 16:17:00,18.7,9.1,30.20,NW,306,2.6,8.9,66,0.00,,,0.00,WUHU21623XXSP,2013-12-11 21:17:00,
2013-12-11 16:22:00,18.3,8.4,30.20,North,0,7.2,7.8,65,0.00,,,0.00,WUHU21623XXSP,2013-12-11 21:22:00,
2013-12-11 16:27:00,18.3,8.4,30.20,NW,317,2.6,7.4,65,0.00,,,0.00,WUHU21623XXSP,2013-12-11 21:27:00,
2013-12-11 16:32:00,18.0,8.1,30.20,NW,315,3.6,8.3,65,0.00,,,0.00,WUHU21623XXSP,2013-12-11 21:32:00,
2013-12-11 16:37:00,17.8,8.0,30.20,WNW,299,3.3,8.3,65,0.00,,,0.00,WUHU21623XXSP,2013-12-11 21:37:00,
2013-12-11 16:42:00,17.8,7.6,30.21,WNW,303,2.8,11.4,64,0.00,,,0.00,WUHU21623XXSP,2013-12-11 21:42:00,
2013-12-11 16:47:00,17.4,7.3,30.21,WNW,292,6.9,11.4,64,0.00,,,0.00,WUHU21623XXSP,2013-12-11 21:47:00,
2013-12-11 16:52:00,17.2,6.7,30.22,North,0,4.0,7.6,63,0.00,,,0.00,WUHU21623XXSP,2013-12-11 21:52:00,
2013-12-11 16:57:00,16.9,6.4,30.22,WNW,300,4.2,11.6,63,0.00,,,0.00,WUHU21623XXSP,2013-12-11 21:57:00,
2013-12-11 17:02:00,16.7,6.5,30.22,WNW,292,3.4,11.6,64,0.00,,,0.00,WUHU21623XXSP,2013-12-11 22:02:00,
2013-12-11 17:07:00,16.3,6.2,30.22,WNW,302,4.0,6.7,64,0.00,,,0.00,WUHU21623XXSP,2013-12-11 22:07:00,
2013-12-11 17:12:00,16.3,6.2,30.22,NW,323,3.5,6.9,64,0.00,,,0.00,WUHU21623XXSP,2013-12-11 22:12:00,
2013-12-11 17:17:00,16.3,6.5,30.22,NW,315,4.5,6.9,65,0.00,,,0.00,WUHU21623XXSP,2013-12-11 22:17:00,
2013-12-11 17:22:00,16.2,6.3,30.23,WNW,297,2.9,7.8,65,0.00,,,0.00,WUHU21623XXSP,2013-12-11 22:22:00,
2013-12-11 17:27:00,16.2,6.3,30.23,WNW,302,2.7,7.8,65,0.00,,,0.00,WUHU21623XXSP,2013-12-11 22:27:00,
2013-12-11 17:32:00,16.2,6.7,30.23,NW,323,2.2,5.8,66,0.00,,,0.00,WUHU21623XXSP,2013-12-11 22:32:00,
2013-12-11 17:37:00,16.2,6.7,30.23,NW,315,6.3,8.9,66,0.00,,,0.00,WUHU21623XXSP,2013-12-11 22:37:00,
2013-12-11 17:42:00,16.0,6.9,30.24,NNW,329,2.7,8.9,67,0.00,,,0.00,WUHU21623XXSP,2013-12-11 22:42:00,
2013-12-11 17:47:00,16.2,7.0,30.24,NNW,332,4.2,7.8,67,0.00,,,0.00,WUHU21623XXSP,2013-12-11 22:47:00,
2013-12-11 17:52:00,16.2,7.0,30.24,WNW,303,2.0,9.8,67,0.00,,,0.00,WUHU21623XXSP,2013-12-11 22:52:00,
2013-12-11 17:57:00,16.0,6.5,30.24,West,279,2.4,9.8,66,0.00,,,0.00,WUHU21623XXSP,2013-12-11 22:57:00,
2013-12-11 18:02:00,16.0,6.2,30.25,NW,311,3.5,8.9,65,0.00,,,0.00,WUHU21623XXSP,2013-12-11 23:02:00,
2013-12-11 18:07:00,16.0,6.2,30.25,WNW,296,3.3,8.9,65,0.00,,,0.00,WUHU21623XXSP,2013-12-11 23:07:00,
2013-12-11 18:12:00,16.0,6.2,30.25,North,0,2.9,8.7,65,0.00,,,0.00,WUHU21623XXSP,2013-12-11 23:12:00,
2013-12-11 18:17:00,16.0,6.2,30.25,West,270,2.0,8.7,65,0.00,,,0.00,WUHU21623XXSP,2013-12-11 23:17:00,
2013-12-11 18:22:00,15.6,5.8,30.25,NW,305,4.3,9.6,65,0.00,,,0.00,WUHU21623XXSP,2013-12-11 23:22:00,
2013-12-11 18:27:00,15.6,5.8,30.26,NW,310,2.4,9.6,65,0.00,,,0.00,WUHU21623XXSP,2013-12-11 23:27:00,
2013-12-11 18:32:00,15.6,6.2,30.26,WNW,297,1.0,5.6,66,0.00,,,0.00,WUHU21623XXSP,2013-12-11 23:32:00,
2013-12-11 18:38:00,15.6,6.2,30.25,WNW,291,2.9,6.3,66,0.00,,,0.00,WUHU21623XXSP,2013-12-11 23:38:00,
2013-12-11 18:43:00,15.4,6.3,30.26,West,272,4.3,7.4,66,0.00,,,0.00,WUHU21623XXSP,2013-12-11 23:43:00,
2013-12-11 18:47:00,15.4,5.7,30.26,WNW,290,2.8,8.1,65,0.00,,,0.00,WUHU21623XXSP,2013-12-11 23:47:00,
2013-12-11 18:53:00,15.4,5.7,30.27,West,270,5.4,9.8,65,0.00,,,0.00,WUHU21623XXSP,2013-12-11 23:53:00,
2013-12-11 18:58:00,15.3,5.5,30.27,NW,315,4.9,9.8,65,0.00,,,0.00,WUHU21623XXSP,2013-12-11 23:58:00,
2013-12-11 19:03:00,15.1,5.3,30.27,NNW,337,3.6,7.6,65,0.00,,,0.00,WUHU21623XXSP,2013-12-12 00:03:00,
2013-12-11 19:08:00,15.1,5.3,30.27,NW,312,4.2,8.5,65,0.00,,,0.00,WUHU21623XXSP,2013-12-12 00:08:00,
2013-12-11 19:13:00,15.1,5.7,30.27,South,180,2.2,8.5,66,0.00,,,0.00,WUHU21623XXSP,2013-12-12 00:13:00,
2013-12-11 19:18:00,15.1,5.7,30.27,WSW,254,2.4,4.5,66,0.00,,,0.00,WUHU21623XXSP,2013-12-12 00:18:00,
2013-12-11 19:23:00,15.1,6.0,30.27,NW,315,4.5,7.4,67,0.00,,,0.00,WUHU21623XXSP,2013-12-12 00:23:00,
2013-12-11 19:28:00,15.1,5.7,30.27,NW,315,6.5,8.1,66,0.00,,,0.00,WUHU21623XXSP,2013-12-12 00:28:00,
2013-12-11 19:33:00,14.9,5.5,30.27,NNW,337,6.0,8.1,66,0.00,,,0.00,WUHU21623XXSP,2013-12-12 00:33:00,
2013-12-11 19:38:00,14.9,5.5,30.28,WNW,292,5.8,8.9,66,0.00,,,0.00,WUHU21623XXSP,2013-12-12 00:38:00,
2013-12-11 19:42:00,14.9,5.5,30.27,NW,323,2.6,10.1,66,0.00,,,0.00,WUHU21623XXSP,2013-12-12 00:42:00,
2013-12-11 19:48:00,14.9,5.9,30.27,WNW,294,3.8,10.1,67,0.00,,,0.00,WUHU21623XXSP,2013-12-12 00:48:00,
2013-12-11 19:52:00,14.9,5.9,30.27,WNW,292,5.4,7.6,67,0.00,,,0.00,WUHU21623XXSP,2013-12-12 00:52:00,
2013-12-11 19:58:00,14.7,5.7,30.27,WNW,294,2.4,6.9,67,0.00,,,0.00,WUHU21623XXSP,2013-12-12 00:58:00,
2013-12-11 20:03:00,14.7,5.7,30.27,NNW,327,3.5,6.9,67,0.00,,,0.00,WUHU21623XXSP,2013-12-12 01:03:00,
2013-12-11 20:08:00,14.7,6.0,30.27,WNW,292,2.9,6.9,68,0.00,,,0.00,WUHU21623XXSP,2013-12-12 01:08:00,
2013-12-11 20:13:00,14.7,5.7,30.28,WNW,297,3.0,7.4,67,0.00,,,0.00,WUHU21623XXSP,2013-12-12 01:13:00,
2013-12-11 20:18:00,14.7,5.7,30.28,West,270,1.8,7.4,67,0.00,,,0.00,WUHU21623XXSP,2013-12-12 01:18:00,
2013-12-11 20:23:00,14.7,5.7,30.28,NW,326,2.6,5.8,67,0.00,,,0.00,WUHU21623XXSP,2013-12-12 01:23:00,
2013-12-11 20:27:00,14.7,5.7,30.28,West,268,3.0,7.2,67,0.00,,,0.00,WUHU21623XXSP,2013-12-12 01:27:00,
2013-12-11 20:32:00,14.7,6.0,30.28,WNW,300,1.6,7.2,68,0.00,,,0.00,WUHU21623XXSP,2013-12-12 01:32:00,
2013-12-11 20:37:00,14.7,6.0,30.29,NNW,337,2.2,6.7,68,0.00,,,0.00,WUHU21623XXSP,2013-12-12 01:37:00,
2013-12-11 20:42:00,14.7,5.7,30.29,WNW,296,3.1,8.9,67,0.00,,,0.00,WUHU21623XXSP,2013-12-12 01:42:00,
2013-12-11 20:47:00,14.7,5.4,30.29,NW,304,2.7,8.9,66,0.00,,,0.00,WUHU21623XXSP,2013-12-12 01:47:00,
2013-12-11 20:52:00,14.7,5.4,30.29,West,270,5.4,6.7,66,0.00,,,0.00,WUHU21623XXSP,2013-12-12 01:52:00,
2013-12-11 20:57:00,14.7,5.4,30.29,NW,317,3.5,8.1,66,0.00,,,0.00,WUHU21623XXSP,2013-12-12 01:57:00,
2013-12-11 21:02:00,14.7,5.4,30.29,West,270,3.1,8.1,66,0.00,,,0.00,WUHU21623XXSP,2013-12-12 02:02:00,
2013-12-11 21:07:00,14.7,5.4,30.29,NW,315,6.0,10.7,66,0.00,,,0.00,WUHU21623XXSP,2013-12-12 02:07:00,
2013-12-11 21:12:00,14.7,5.7,30.29,WNW,291,1.9,10.7,67,0.00,,,0.00,WUHU21623XXSP,2013-12-12 02:12:00,
2013-12-11 21:17:00,14.7,5.7,30.29,NNW,327,1.2,5.8,67,0.00,,,0.00,WUHU21623XXSP,2013-12-12 02:17:00,
2013-12-11 21:22:00,14.7,5.7,30.29,WNW,292,4.7,6.7,67,0.00,,,0.00,WUHU21623XXSP,2013-12-12 02:22:00,
2013-12-11 21:27:00,14.7,5.7,30.28,North,0,4.7,6.7,67,0.00,,,0.00,WUHU21623XXSP,2013-12-12 02:27:00,
2013-12-11 21:32:00,14.7,5.7,30.28,NW,315,3.8,8.1,67,0.00,,,0.00,WUHU21623XXSP,2013-12-12 02:32:00,
2013-12-11 21:37:00,14.7,5.7,30.28,NW,315,3.1,8.1,67,0.00,,,0.00,WUHU21623XXSP,2013-12-12 02:37:00,
2013-12-11 21:42:00,14.7,5.7,30.28,WNW,292,3.1,6.9,67,0.00,,,0.00,WUHU21623XXSP,2013-12-12 02:42:00,
2013-12-11 21:47:00,14.7,5.7,30.28,WSW,247,2.7,7.4,67,0.00,,,0.00,WUHU21623XXSP,2013-12-12 02:47:00,
2013-12-11 21:52:00,14.5,5.5,30.28,WNW,292,4.8,7.4,67,0.00,,,0.00,WUHU21623XXSP,2013-12-12 02:52:00,
2013-12-11 21:57:00,14.5,5.5,30.29,NW,315,2.9,7.4,67,0.00,,,0.00,WUHU21623XXSP,2013-12-12 02:57:00,
2013-12-11 22:02:00,14.4,5.4,30.29,WNW,292,4.3,7.6,67,0.00,,,0.00,WUHU21623XXSP,2013-12-12 03:02:00,
2013-12-11 22:07:00,14.4,5.7,30.29,NNW,337,4.9,7.6,68,0.00,,,0.00,WUHU21623XXSP,2013-12-12 03:07:00,
2013-12-11 22:12:00,14.2,5.6,30.29,NW,315,2.5,6.0,68,0.00,,,0.00,WUHU21623XXSP,2013-12-12 03:12:00,
2013-12-11 22:17:00,14.2,5.6,30.29,WNW,302,2.3,7.2,68,0.00,,,0.00,WUHU21623XXSP,2013-12-12 03:17:00,
2013-12-11 22:22:00,14.2,5.9,30.29,NW,311,3.3,7.2,69,0.00,,,0.00,WUHU21623XXSP,2013-12-12 03:22:00,
2013-12-11 22:27:00,14.2,5.9,30.29,WNW,285,4.9,8.3,69,0.00,,,0.00,WUHU21623XXSP,2013-12-12 03:27:00,
2013-12-11 22:32:00,14.2,5.6,30.29,NW,315,6.0,10.5,68,0.00,,,0.00,WUHU21623XXSP,2013-12-12 03:32:00,
2013-12-11 22:37:00,13.8,5.2,30.29,WNW,292,3.4,10.5,68,0.00,,,0.00,WUHU21623XXSP,2013-12-12 03:37:00,
2013-12-11 22:42:00,13.8,5.2,30.29,West,270,2.7,6.5,68,0.00,,,0.00,WUHU21623XXSP,2013-12-12 03:42:00,
2013-12-11 22:47:00,13.8,5.2,30.29,NW,315,2.0,5.6,68,0.00,,,0.00,WUHU21623XXSP,2013-12-12 03:47:00,
2013-12-11 22:52:00,13.8,5.2,30.29,WNW,292,5.1,6.0,68,0.00,,,0.00,WUHU21623XXSP,2013-12-12 03:52:00,
2013-12-11 22:57:00,13.8,5.2,30.28,NW,309,2.8,7.4,68,0.00,,,0.00,WUHU21623XXSP,2013-12-12 03:57:00,
2013-12-11 23:02:00,13.6,5.4,30.28,NNW,338,1.4,7.4,69,0.00,,,0.00,WUHU21623XXSP,2013-12-12 04:02:00,
2013-12-11 23:07:00,13.6,5.4,30.28,West,269,2.9,6.7,69,0.00,,,0.00,WUHU21623XXSP,2013-12-12 04:07:00,
2013-12-11 23:12:00,13.6,5.4,30.28,WNW,292,4.3,4.9,69,0.00,,,0.00,WUHU21623XXSP,2013-12-12 04:12:00,
2013-12-11 23:17:00,13.6,5.4,30.28,NW,310,1.0,6.5,69,0.00,,,0.00,WUHU21623XXSP,2013-12-12 04:17:00,
2013-12-11 23:22:00,13.6,5.4,30.28,NW,323,2.9,6.5,69,0.00,,,0.00,WUHU21623XXSP,2013-12-12 04:22:00,
2013-12-11 23:27:00,13.6,5.0,30.28,WNW,295,1.8,6.0,68,0.00,,,0.00,WUHU21623XXSP,2013-12-12 04:27:00,
2013-12-11 23:32:00,13.5,4.9,30.28,NW,315,4.5,5.6,68,0.00,,,0.00,WUHU21623XXSP,2013-12-12 04:32:00,
2013-12-11 23:37:00,13.3,4.7,30.28,NW,315,2.2,7.6,68,0.00,,,0.00,WUHU21623XXSP,2013-12-12 04:37:00,
2013-12-11 23:42:00,13.3,5.0,30.28,WSW,255,0.9,7.6,69,0.00,,,0.00,WUHU21623XXSP,2013-12-12 04:42:00,
2013-12-11 23:47:00,13.3,5.0,30.28,NW,315,3.4,4.5,69,0.00,,,0.00,WUHU21623XXSP,2013-12-12 04:47:00,
2013-12-11 23:52:00,13.3,5.0,30.28,NW,319,2.4,5.1,69,0.00,,,0.00,WUHU21623XXSP,2013-12-12 04:52:00,
2013-12-11 23:57:00,13.3,5.0,30.28,NW,315,3.1,5.6,69,0.00,,,0.00,WUHU21623XXSP,2013-12-12 04:57:00,